Tracking 19145 objects as of 25-Apr-2018
HD Live streaming from Space Station
objects crossing your sky now

FENGYUN 1C DEB

Track FENGYUN 1C DEB now!
10-day predictions


NORAD ID: 31464
Int'l Code: 1999-025BVC
Perigee: 833.7 km
Apogee: 899.9 km
Inclination: 99.1 °
Period: 102.1 minutes
Semi major axis: 7237 km
RCS: 0.0009 m2 (small)
Launch date: May 10, 1999
Source: People's Republic of China (PRC)
Launch site: Taiyaun Space Center, China (TSC)

Note: This is SATELLITE DEBRIS
aabbcc
Your satellite tracking list
Your tracking list is empty




NASA's NSSDC Master Catalog

Two Line Element Set (TLE):
1 31464U 99025BVC 18115.24507144  .00000122  00000-0  94151-4 0  9995
2 31464  99.1131 129.8521 0045690 170.2291 250.2187 14.09912351566814
Source of the keplerian elements: AFSPC